Location: Balmoral
(33.0667°S, 151.5833°E)
Time: 16:28:29
(UTC+00:00)

NOAA 6 - Visible Passes

Search period start: 30 November 2021 00:00
Search period end: 10 December 2021 00:00
Orbit: 771 x 787 km, 98.7° (Epoch: 30 November)

Date Brightness Start Highest point End Pass type
(mag) Time Alt. Az. Time Alt. Az. Time Alt. Az.
30 Nov 7.6 18:06:18 10° E 18:08:37 13° ESE 18:10:56 10° SE visible
01 Dec 7.4 09:39:00 10° SW 09:41:28 13° WSW 09:43:55 10° W visible
03 Dec 7.5 18:07:35 10° E 18:10:02 13° ESE 18:12:29 10° SE visible
04 Dec 7.4 09:40:33 10° SW 09:42:53 13° WSW 09:45:13 10° W visible
07 Dec 7.4 09:42:06 10° SW 09:44:18 13° WSW 09:46:29 10° W visible
